Погода в Вологде

Погода в Вологде : погода сейчас, прогноз погоды и архив. Всё, что Вы хотите узнать о погоде в Вологде!

Хотите узнать прогноз погоды в Вологде? Тогда Вам сюда: Погода в Вологде

Поиск расширенной информации на нашем сайте:

Другие новости

Новости СМИ2

Главная страница сайта

Новости сайта

03.07.2017

Напоминаем, что на нашем специализированном сайте Метеоцентр.Азия вы можете получить высокодетализированные автоматические прогнозы погоды по пунктам России, СНГ и мира в авиационном формате (включающие направление и скорость ветра, видимость, явления погоды, количество и форму облачности, нижнюю и верхнюю границу облачности).

Рекомендуем: эмалировка ванн

Погода в Вологде - сегодня

Время (UTC), дата Ветер
(°,м/с) 
Видим.   Явления Облачность Т
(°С)
Тd
(°С)
f(%) Тe
(°С)
Pmin
(гПа)
dP
(гПа)
Po
(мм)
O2
(г/м3)
Тmin Tmax R s Состояние
почвы
09 18.07.17 210 (ЮЗ) 20000 м  в посл. час ливневой дождь  9/9 540 м кучево-дожд. 
[Cb cap]
+18 +13.4 74 +25  1012.6  -0.2  748  280           
12 18.07.17 250 (З) 20000 м  {ливн. осадки}  3/3 600 м кучево-дожд. 
[Cb cap]
+20 +12.5 62 +25  1011.9  -0.6  748  278           
15 18.07.17 230 (ЮЗ) 20000 м    9/8 600 м кучево-дожд., средняя, верхняя 
[Cb cap|Ac trans|Ci fib]
+19 +10.8 59 +23  1011.8  -0.2  747  280    +20.7     
18 18.07.17 210 (ЮЗ) 20000 м    6/3 1000 м средняя 
[Sc|Ac trans]
+16 +11.8 76 +21  1012.2  0.3  748  282           
21 18.07.17 210 (ЮЗ) 20000 м    6/3 1000 м средняя 
[Sc|Ac trans]
+11.9 +10.5 91 +15  1012.6  0.2  748  287           
00 19.07.17 230 (ЮЗ) 20000 м    8/8 600 м 
[Sc]
+11.7 +10.2 91 +14  1013  0.4  748  287           
03 19.07.17 220 (ЮЗ) 20000 м    4/0 верхняя 
[Ci fib]
+13.2 +10.5 84 +16  1013.4  0.4  748  286  +10.8        влажная 
06 19.07.17 220 (ЮЗ) 20000 м    3/1 600 м средняя 
[Sc|Ac trans]
+17.7 +9.8 60 +20  1013.1  -0.1  748  281           
09 19.07.17 270 (З) 20000 м  в посл. час ливневой дождь  9/9 540 м кучево-дожд. 
[Cb cap]
+18 +10.2 60 +20  1012.9  -0.1  748  281           
12 19.07.17 280 (З) 10 км  в посл. час ливневой дождь{гроза}  9/9 600 м кучево-дожд. 
[Cb cap]
+16 +10.5 70 +18  1013.3  0.3  748  283           
15 19.07.17 290 (З) 20000 м    9/8 600 м кучево-дожд., средняя 
[Cb cap|Ac trans]
+17.3 +8.8 57 +19  1013.7  0.4  749  282    +19.4     
18 19.07.17 190 (Ю) 20000 м    4/3 1000 м средняя, верхняя 
[Sc|Ac trans|Ci fib]
+12.4 +9.9 85 +15  1014.7  0.7  749  287           
21 19.07.17 220 (ЮЗ) 20000 м    3/1 1000 м верхняя 
[Sc|Ci fib]
+8.8 +7.6 92 +10  1014.7  -0.2  749  291           
00 20.07.17 220 (ЮЗ) 20000 м    1/1 1000 м 
[Sc]
+8.9 +7.3 90 +10  1015  0.3  749  291           
03 20.07.17 140 (ЮВ) 20000 м    9/8 960 м верхняя 
[Sc|Ci fib]
+10.9 +9.3 90 +12  1015.2  0.3  750  289  +8.1        влажная 
06 20.07.17 230 (ЮЗ) 20000 м    6/3 2000 м средняя, верхняя 
[Ac trans|Ci fib]
+17 +10.3 65 +20  1014.4  -0.4  749  282           
09 20.07.17 180 (Ю) 20000 м    9/8 600 м кучево-дожд., средняя, верхняя 
[Cb cap|Ac trans|Ci fib]
+18.5 +7.7 49 +19  1013.8  -0.5  749  281           
12 20.07.17 350 (С) 10 км  слаб. ливневой дождь  9/8 450 м кучево-дожд., средняя 
[Cb cap|Ac trans]
+17.5 +11 66 +22  1013  -0.8  748  281           
15 20.07.17 230 (ЮЗ) 20000 м  в посл. час ливневой дождь  9/8 600 м кучево-дожд., средняя, верхняя 
[Cb cap|Ac trans|Ci fib]
+15.6 +10 69 +18  1013.5  0.3  749  283    +20.4  0.0     
18 20.07.17 150 (ЮВ) 20000 м  {ливн. осадки}  8/6 600 м кучево-дожд., средняя 
[Cb cap|Ac trans]
+13.4 +9.9 79 +15  1013.5  -0.1  748  286           
21 20.07.17 тихо ()   20000 м    6/6 2000 м средняя 
[Ac trans]
+11.4 +9.9 90 +12    -0.3  748  288           
00 21.07.17 150 (ЮВ) 20000 м  местами туман поземный  4/4 2000 м средняя 
[Ac trans]
+8.4 +7.3 93 +9  1013.9  0.4  749  291           
03 21.07.17 150 (ЮВ) 20000 м    6/4 2000 м средняя, верхняя 
[Ac trans|Ci fib]
+10.6 +9.5 93 +13  1013.7  749  289  +8.1        влажная 
06 21.07.17 040 (СВ) 20000 м    8/4 1000 м средняя 
[Sc|Ac trans]
+16.7 +11.4 71 +21  1013.1  -0.2  748  282           
09 21.07.17 030 (СВ) 20000 м    9/4 600 м кучево-дожд., средняя, верхняя 
[Cb cap|Ac trans|Ci fib]
+18.7 +12.1 65 +24  1012.2  -0.9  748  280           
Время (UTC), дата Ветер
(°,м/с) 
Видим.   Явления Облачность Т
(°С)
Тd
(°С)
f(%) Тe
(°С)
Pmin
(гПа)
dP
(гПа)
Po
(мм)
O2
(г/м3)
Тmin Tmax R s Состояние
почвы

Для получения пояснительной информации подведите курсор к названию столбца.

ПОГОДА в Вологде - архив

Всё, что Вы хотите узнать о погоде в Вологде - удобно и подробно!

Выберите нужную дату (начиная с 1 января 2015* года) и нажмите кнопку "Найти".
Будут отображены архивные сводки погоды по пункту Вологда, начиная с указанной даты.


Отображать данные в формате CSV (для использования в таблицах Excel)


Внимание! Наш архив погоды предназначен исключительно для личного некоммерческого использования в познавательных целях. Если Вам необходимы официальные справки о состоянии погоды (для производственных, юридических, коммерческих и т.п. целей), обращайтесь в органы Росгидромета.

*Примечание: данная дата относится к архиву по метеостанциям СССР (Россия, СНГ, Балтия).
Архив по метеостанциям Зарубежной Европы и Азии (кроме Китая) хранится 10 дней, по другим регионам земного шара (Китай, Африка, Америка, Австралия, Океания) - 1 день.

Вологда - район местоположения метеостанции


Название, широта, долгота, высота метеостанции:
Вологда (город) 59.3°ш. 39.9°д. 130 м над ур. моря [Российская Федерация]

Дополнительная информация

В oтличие oт бoльшинства пoгoдных сайтoв мы публикуем пoдрoбную метеoинфoрмацию в детальнoм прoфессиoнальнoм фoрмате.

Характеристики температуры и влажнoсти вoздуха измеряются на высoте 2 м в тени вдали oт зданий и деревьев.
Скoрoсть ветра измеряется на высoте 10 м (на урoвне рoста челoвека скoрoсть ветра ниже в 1.5-2 раза). Если метеoстанция нахoдится в гoрoде или в лесу, тo скoрoсть ветра занижена на 2-4 м/с пo сравнению с oткрытым местoм. Скoрoсть ветра над акватoриями крупных рек и oзёр, а также на вершинах хoлмoв на 2-5 м/с выше, чем в oбычных услoвиях.
Атмoсфернoе давление в разных тoчках местнoсти мoжет значительнo oтличаться oт давления на метеoстанции, в зависимoсти oт услoвий рельефа (при пoдъёме на 10 м давление пoнижается примернo на 1 мм рт.ст.).